Delmar, DE-Gumboro DE USA current weather conditions

sailwx.info

Air temperature -5.1° C
Dewpoint -7.1° C

Last reported at 2020-Jan-23 04:00 UTC.
Time now 2020-Jan-23 04:25 UTC

Location: N 38°29' W 075°22'.
View on Google Maps.

See reports from other nearby stations

  
Tides and Currents Weather Stations Pressure Air Temp Water Temp Dewpoint Dewpoint Depression Visibility Wind Speed Wind Dir Waves Ship Positions
date/time (UTC)wind fromknots sea level pressurealtimeterstation pressurevisibilityair tempwater tempwave heightnotes
2020-Jan-23 04:00 -5.1
2020-Jan-23 03:55 282 0 gusting 0 -5.0
2020-Jan-23 03:50 143 0 gusting 0 -4.8
2020-Jan-23 03:45 143 0 gusting 0 -4.7
2020-Jan-23 03:40 -4.8
2020-Jan-23 03:35 168 0 gusting 0 -4.7
2020-Jan-23 03:30 168 0 gusting 1 -4.7
2020-Jan-23 03:25 -4.6
2020-Jan-23 03:20 -4.6
2020-Jan-23 03:15 -4.6
2020-Jan-23 03:10 -4.6
2020-Jan-23 03:05 168 0 gusting 0 -4.5
2020-Jan-23 03:00 168 0 gusting 0 -4.4
2020-Jan-23 02:55 168 0 gusting 1 -4.5
2020-Jan-23 02:50 168 0 gusting 0 -4.6
2020-Jan-23 02:45 -4.6
2020-Jan-23 02:40 -4.6
2020-Jan-23 02:35 -4.2
2020-Jan-23 02:30 148 0 gusting 1 -4.1
2020-Jan-23 02:25 167 0 gusting 1 -4.1
2020-Jan-23 02:20 169 0 gusting 1 -4.2
2020-Jan-23 02:15 180 2 gusting 2 -4.4
2020-Jan-23 02:10 230 0 gusting 1 -4.3
2020-Jan-23 02:05 300 0 gusting 0 -4.3
2020-Jan-23 02:00 310 0 gusting 1 -4.1
2020-Jan-23 01:55 325 1 gusting 1 -3.9
2020-Jan-23 01:50 325 0 gusting 0 -3.8
2020-Jan-23 01:45 279 0 gusting 0 -3.6
2020-Jan-23 01:40 -3.5
2020-Jan-23 01:35 -3.5
2020-Jan-23 01:30 206 0 gusting 0 -3.3
2020-Jan-23 01:25 191 0 gusting 0 -3.1
2020-Jan-23 01:20 191 0 gusting 0 -3.3
2020-Jan-23 01:15 -3.6
2020-Jan-23 01:10 195 0 gusting 1 -3.7
2020-Jan-23 01:05 260 0 gusting 1 -3.5
2020-Jan-23 01:00 336 0 gusting 1 -3.4
2020-Jan-23 00:55 328 0 gusting 0 -3.6
2020-Jan-23 00:50 -3.5
2020-Jan-23 00:45 327 0 gusting 1 -3.2
2020-Jan-23 00:40 337 0 gusting 1 -3.1
2020-Jan-23 00:35 348 1 gusting 1 -3.1
2020-Jan-23 00:30 358 1 gusting 1 -2.9
2020-Jan-23 00:25 342 1 gusting 1 -2.6
2020-Jan-23 00:20 333 0 gusting 1 -2.6
2020-Jan-23 00:15 328 0 gusting 0 -2.5
2020-Jan-23 00:10 -2.3
2020-Jan-23 00:05 334 0 gusting 0 -2.0
2020-Jan-23 00:00 334 0 gusting 0 -2.0
2020-Jan-22 23:55 -2.0
2020-Jan-22 23:50 001 0 gusting 0 -2.0
2020-Jan-22 23:45 007 0 gusting 1 -1.7
2020-Jan-22 23:40 346 0 gusting 0 -1.7
2020-Jan-22 23:35 -1.6
2020-Jan-22 23:30 328 0 gusting 0 -1.5
2020-Jan-22 23:25 331 1 gusting 1 -1.3
2020-Jan-22 23:20 348 1 gusting 1 -1.0
2020-Jan-22 23:15 351 0 gusting 1 -0.5
2020-Jan-22 23:10 -0.0
2020-Jan-22 23:05 0.3
2020-Jan-22 23:00 097 0 gusting 0 0.7
2020-Jan-22 22:55 099 0 gusting 1 0.9
2020-Jan-22 22:50 105 1 gusting 2 1.0
2020-Jan-22 22:45 085 1 gusting 2 1.2
2020-Jan-22 22:40 081 1 gusting 2 1.3
2020-Jan-22 22:35 070 1 gusting 2 1.4
2020-Jan-22 22:30 053 1 gusting 3 1.5
2020-Jan-22 22:25 044 2 gusting 3 1.6
2020-Jan-22 22:20 043 2 gusting 4 1.8
2020-Jan-22 22:15 047 2 gusting 4 2.1
2020-Jan-22 22:10 046 3 gusting 4 2.3
2020-Jan-22 22:05 050 3 gusting 5 2.5
2020-Jan-22 22:00 052 3 gusting 4 2.8
2020-Jan-22 21:55 049 3 gusting 6 3.2
2020-Jan-22 21:50 039 4 gusting 5 3.5
2020-Jan-22 21:45 037 4 gusting 6 3.6
2020-Jan-22 21:40 028 4 gusting 5 4.0
2020-Jan-22 21:35 360 3 gusting 5 4.2
2020-Jan-22 21:30 332 4 gusting 6 4.3
2020-Jan-22 21:25 335 4 gusting 6 4.4
2020-Jan-22 21:20 337 4 gusting 6 4.4
2020-Jan-22 21:15 349 4 gusting 5 4.4
2020-Jan-22 21:10 337 4 gusting 6 4.5
2020-Jan-22 21:05 356 4 gusting 7 4.5
2020-Jan-22 21:00 010 5 gusting 8 4.6
2020-Jan-22 20:55 359 6 gusting 8 4.6
2020-Jan-22 20:50 354 4 gusting 7 4.6
2020-Jan-22 20:45 341 5 gusting 8 4.8
2020-Jan-22 20:40 329 4 gusting 7 4.8
2020-Jan-22 20:35 332 4 gusting 7 4.7
2020-Jan-22 20:30 324 3 gusting 5 4.7
2020-Jan-22 20:25 327 3 gusting 5 4.5
2020-Jan-22 20:20 324 3 gusting 5 4.7
2020-Jan-22 20:15 009 3 gusting 6 4.7
2020-Jan-22 20:10 009 2 gusting 4 4.7
2020-Jan-22 20:05 059 2 gusting 4 4.6
2020-Jan-22 20:00 056 1 gusting 3 4.8
2020-Jan-22 19:55 092 1 gusting 2 4.6
2020-Jan-22 19:50 059 1 gusting 4 4.3
2020-Jan-22 19:45 042 3 gusting 6 4.5
2020-Jan-22 19:40 015 2 gusting 3 4.4
2020-Jan-22 19:35 061 3 gusting 5 4.5
2020-Jan-22 19:30 051 2 gusting 5 4.3
2020-Jan-22 19:25 340 3 gusting 7 4.5
2020-Jan-22 19:20 348 3 gusting 5 4.5
2020-Jan-22 19:15 317 3 gusting 6 4.7
2020-Jan-22 19:10 359 1 gusting 2 4.4
2020-Jan-22 19:05 333 3 gusting 6 4.3
2020-Jan-22 19:00 314 4 gusting 7 4.6
2020-Jan-22 18:55 294 4 gusting 7 4.3
2020-Jan-22 18:50 310 3 gusting 6 4.0
2020-Jan-22 18:45 320 4 gusting 8 4.0
2020-Jan-22 18:40 283 2 gusting 5 4.1
2020-Jan-22 18:35 328 4 gusting 7 4.0
2020-Jan-22 18:30 318 4 gusting 7 4.1
2020-Jan-22 18:25 317 3 gusting 7 3.9
2020-Jan-22 18:20 309 3 gusting 6 3.8
2020-Jan-22 18:15 337 4 gusting 7 3.7
2020-Jan-22 18:10 359 3 gusting 6 3.7
2020-Jan-22 18:05 248 3 gusting 4 3.7
2020-Jan-22 18:00 299 3 gusting 4 3.7
2020-Jan-22 17:55 298 3 gusting 6 3.5
2020-Jan-22 17:50 323 3 gusting 6 3.7
2020-Jan-22 17:45 034 2 gusting 4 3.1
2020-Jan-22 17:40 342 2 gusting 5 3.1
2020-Jan-22 17:35 310 3 gusting 7 3.0
2020-Jan-22 17:30 285 2 gusting 6 3.3
2020-Jan-22 17:25 306 2 gusting 5 3.0
2020-Jan-22 17:20 310 3 gusting 5 2.9
2020-Jan-22 17:15 300 2 gusting 5 2.8
2020-Jan-22 17:10 353 2 gusting 6 2.7
2020-Jan-22 17:05 342 2 gusting 4 2.6
2020-Jan-22 17:00 330 3 gusting 6 2.2
2020-Jan-22 16:55 347 4 gusting 6 2.3
2020-Jan-22 16:50 043 4 gusting 7 2.5
2020-Jan-22 16:45 331 3 gusting 5 2.2
2020-Jan-22 16:40 331 3 gusting 6 2.0
2020-Jan-22 16:35 337 3 gusting 7 2.0
2020-Jan-22 16:30 339 4 gusting 6 1.8
2020-Jan-22 16:25 345 4 gusting 6 1.9
2020-Jan-22 16:20 320 3 gusting 5 1.7
2020-Jan-22 16:15 318 4 gusting 7 1.3
2020-Jan-22 16:10 348 4 gusting 7 1.5
2020-Jan-22 16:05 022 3 gusting 5 1.4
2020-Jan-22 16:00 030 4 gusting 6 1.0
2020-Jan-22 15:55 001 4 gusting 8 1.0
2020-Jan-22 15:50 353 4 gusting 8 1.1
2020-Jan-22 15:45 344 5 gusting 7 1.0
2020-Jan-22 15:40 344 4 gusting 7 0.9
2020-Jan-22 15:35 357 5 gusting 9 0.7
2020-Jan-22 15:30 356 5 gusting 7 0.6
2020-Jan-22 15:25 015 4 gusting 6 0.5
2020-Jan-22 15:20 356 5 gusting 6 0.3
2020-Jan-22 15:15 356 5 gusting 8 0.1
2020-Jan-22 15:10 008 4 gusting 7 0.2
2020-Jan-22 15:05 358 3 gusting 5 0.1
2020-Jan-22 15:00 357 3 gusting 6 -0.2
2020-Jan-22 14:55 347 3 gusting 6 -0.4
2020-Jan-22 14:50 342 4 gusting 8 -0.6
2020-Jan-22 14:45 342 3 gusting 6 -0.6
2020-Jan-22 14:40 342 3 gusting 5 -1.0
2020-Jan-22 14:35 338 4 gusting 5 -1.4
2020-Jan-22 14:30 330 4 gusting 6 -1.6
2020-Jan-22 14:25 333 5 gusting 8 -1.8
2020-Jan-22 14:20 332 4 gusting 7 -1.9
2020-Jan-22 14:15 328 4 gusting 6 -2.2
2020-Jan-22 14:10 320 4 gusting 5 -2.5
2020-Jan-22 14:05 326 4 gusting 6 -2.9
2020-Jan-22 14:00 326 4 gusting 6 -3.2
2020-Jan-22 13:55 324 3 gusting 5 -3.4
2020-Jan-22 13:50 327 3 gusting 5 -3.6
2020-Jan-22 13:45 328 3 gusting 4 -3.8
2020-Jan-22 13:40 329 2 gusting 3 -4.0
2020-Jan-22 13:35 322 2 gusting 4 -4.4
2020-Jan-22 13:30 327 2 gusting 3 -4.7
2020-Jan-22 13:25 332 2 gusting 3 -5.0
2020-Jan-22 13:20 330 2 gusting 3 -5.1
2020-Jan-22 13:15 338 2 gusting 3 -5.3
2020-Jan-22 13:10 332 2 gusting 3 -5.5
2020-Jan-22 13:05 334 1 gusting 3 -5.7
2020-Jan-22 13:00 322 2 gusting 3 -6.0
2020-Jan-22 12:55 313 1 gusting 2 -6.6
2020-Jan-22 12:50 305 1 gusting 1 -6.9
2020-Jan-22 12:45 291 0 gusting 1 -6.8
2020-Jan-22 12:40 274 0 gusting 1 -6.8
2020-Jan-22 12:35 016 0 gusting 0 -7.0
2020-Jan-22 12:30 071 0 gusting 0 -7.2
2020-Jan-22 12:25 -7.4
2020-Jan-22 12:20 -7.6
2020-Jan-22 12:15 041 0 gusting 0 -7.8
2020-Jan-22 12:10 333 1 gusting 2 -7.5
2020-Jan-22 12:05 344 1 gusting 2 -7.5
2020-Jan-22 12:00 005 0 gusting 1 -7.4
2020-Jan-22 11:55 333 1 gusting 2 -7.0
2020-Jan-22 11:50 330 2 gusting 3 -6.8
2020-Jan-22 11:45 333 2 gusting 3 -6.8
2020-Jan-22 11:40 332 2 gusting 3 -6.9
2020-Jan-22 11:35 335 2 gusting 3 -7.1
2020-Jan-22 11:30 349 0 gusting 2 -7.2
2020-Jan-22 11:25 344 1 gusting 3 -6.7
2020-Jan-22 11:20 333 2 gusting 3 -6.6
2020-Jan-22 11:15 325 2 gusting 3 -6.9
2020-Jan-22 11:10 323 2 gusting 3 -7.1
2020-Jan-22 11:05 329 1 gusting 2 -7.5
2020-Jan-22 11:00 334 1 gusting 2 -7.6
2020-Jan-22 10:55 323 0 gusting 1 -7.4
2020-Jan-22 10:50 334 0 gusting 0 -7.3
2020-Jan-22 10:45 335 0 gusting 1 -7.1
2020-Jan-22 10:40 341 1 gusting 1 -6.8
2020-Jan-22 10:35 335 0 gusting 1 -6.5
2020-Jan-22 10:30 326 0 gusting 1 -6.3
2020-Jan-22 10:25 347 1 gusting 2 -6.3
2020-Jan-22 10:20 340 1 gusting 2 -6.1
2020-Jan-22 10:15 320 2 gusting 4 -6.2
2020-Jan-22 10:10 327 2 gusting 4 -6.1
2020-Jan-22 10:05 326 2 gusting 3 -6.0
2020-Jan-22 10:00 328 2 gusting 2 -6.2
2020-Jan-22 09:55 318 1 gusting 2 -6.3
2020-Jan-22 09:50 313 1 gusting 1 -6.2
2020-Jan-22 09:45 321 1 gusting 2 -6.0
2020-Jan-22 09:40 324 2 gusting 3 -5.8
2020-Jan-22 09:35 331 2 gusting 3 -5.9
2020-Jan-22 09:30 322 3 gusting 5 -6.0
2020-Jan-22 09:25 317 3 gusting 4 -6.0
2020-Jan-22 09:20 320 3 gusting 4 -6.0
2020-Jan-22 09:15 326 3 gusting 4 -5.8
2020-Jan-22 09:10 326 3 gusting 5 -5.7
2020-Jan-22 09:05 328 3 gusting 5 -5.9
2020-Jan-22 09:00 329 2 gusting 3 -6.3
2020-Jan-22 08:55 319 2 gusting 2 -6.5
2020-Jan-22 08:50 285 1 gusting 1 -6.1
2020-Jan-22 08:45 283 0 gusting 1 -5.8
2020-Jan-22 08:40 266 1 gusting 1 -5.9
2020-Jan-22 08:35 219 1 gusting 1 -6.2
2020-Jan-22 08:30 276 0 gusting 1 -6.2
2020-Jan-22 08:25 311 2 gusting 2 -6.3
2020-Jan-22 08:20 311 1 gusting 3 -6.6
2020-Jan-22 08:15 350 0 gusting 2 -6.4
2020-Jan-22 08:10 021 0 gusting 0 -6.2
2020-Jan-22 08:05 052 0 gusting 0 -6.2
2020-Jan-22 08:00 314 0 gusting 2 -6.0
2020-Jan-22 07:55 315 2 gusting 3 -6.1
2020-Jan-22 07:50 322 2 gusting 2 -5.8
2020-Jan-22 07:45 355 0 gusting 1 -6.1
2020-Jan-22 07:40 006 0 gusting 0 -6.4
2020-Jan-22 07:35 318 0 gusting 0 -6.0
2020-Jan-22 07:30 272 0 gusting 0 -5.8
2020-Jan-22 07:25 286 0 gusting 1 -5.3
2020-Jan-22 07:20 301 0 gusting 2 -4.7
2020-Jan-22 07:15 317 1 gusting 2 -4.6
2020-Jan-22 07:10 335 0 gusting 0 -4.4
2020-Jan-22 07:05 336 1 gusting 2 -4.2
2020-Jan-22 07:00 331 2 gusting 2 -4.1
2020-Jan-22 06:55 324 1 gusting 2 -4.3
2020-Jan-22 06:50 324 1 gusting 2 -4.1
2020-Jan-22 06:45 328 2 gusting 3 -4.0
2020-Jan-22 06:40 342 2 gusting 3 -4.0
2020-Jan-22 06:35 356 2 gusting 4 -3.9
2020-Jan-22 06:30 358 3 gusting 4 -4.0
2020-Jan-22 06:25 354 3 gusting 4 -4.0
2020-Jan-22 06:20 353 3 gusting 6 -4.1
2020-Jan-22 06:15 356 3 gusting 4 -4.2
2020-Jan-22 06:10 357 2 gusting 4 -4.2
2020-Jan-22 06:05 356 3 gusting 4 -4.2
2020-Jan-22 06:00 349 3 gusting 5 -4.4
2020-Jan-22 05:55 340 2 gusting 3 -4.4
2020-Jan-22 05:50 336 2 gusting 3 -4.1
2020-Jan-22 05:45 335 2 gusting 4 -4.0
2020-Jan-22 05:40 342 2 gusting 4 -3.9
2020-Jan-22 05:35 342 3 gusting 4 -3.9
2020-Jan-22 05:30 335 3 gusting 5 -4.0
2020-Jan-22 05:25 327 4 gusting 5 -4.0
2020-Jan-22 05:20 332 3 gusting 5 -3.9
2020-Jan-22 05:15 337 3 gusting 5 -3.8
2020-Jan-22 05:10 334 3 gusting 5 -3.7
2020-Jan-22 05:05 336 3 gusting 5 -3.6
2020-Jan-22 05:00 335 4 gusting 6 -3.6
2020-Jan-22 04:55 335 3 gusting 5 -3.6
2020-Jan-22 04:50 338 3 gusting 5 -3.5
2020-Jan-22 04:45 345 3 gusting 4 -3.5
2020-Jan-22 04:40 345 2 gusting 3 -3.5
2020-Jan-22 04:35 339 2 gusting 4 -3.5
2020-Jan-22 04:30 351 3 gusting 5 -3.5
2020-Jan-22 04:25 354 2 gusting 5 -3.5
2020-Jan-22 04:20 346 3 gusting 5 -3.4
2020-Jan-22 04:15 342 3 gusting 5 -3.3
2020-Jan-22 04:10 336 3 gusting 5 -3.4
2020-Jan-22 04:05 341 3 gusting 5 -3.5
2020-Jan-22 04:00 342 3 gusting 6 -3.4
2020-Jan-22 03:55 342 3 gusting 6 -3.5
2020-Jan-22 03:50 348 3 gusting 6 -3.4
2020-Jan-22 03:45 341 3 gusting 5 -3.5
2020-Jan-22 03:40 334 3 gusting 5 -3.5
2020-Jan-22 03:35 334 3 gusting 4 -3.4
2020-Jan-22 03:30 331 3 gusting 4 -3.5
2020-Jan-22 03:25 334 3 gusting 5 -3.4
2020-Jan-22 03:20 330 2 gusting 4 -3.5
2020-Jan-22 03:15 332 3 gusting 4 -3.5
2020-Jan-22 03:10 331 2 gusting 4 -3.5
2020-Jan-22 03:05 331 3 gusting 4 -3.4
2020-Jan-22 03:00 331 3 gusting 4 -3.3
2020-Jan-22 02:55 329 3 gusting 5 -3.3
2020-Jan-22 02:50 331 2 gusting 5 -3.3
2020-Jan-22 02:45 332 2 gusting 3 -3.3
2020-Jan-22 02:40 332 2 gusting 3 -3.4
2020-Jan-22 02:35 335 2 gusting 3 -3.3
2020-Jan-22 02:30 329 2 gusting 3 -3.4
2020-Jan-22 02:25 331 2 gusting 4 -3.2
2020-Jan-22 02:20 331 2 gusting 3 -3.2
2020-Jan-22 02:15 330 2 gusting 4 -3.3
2020-Jan-22 02:10 321 2 gusting 4 -3.2
2020-Jan-22 02:05 329 2 gusting 4 -3.2
2020-Jan-22 02:00 325 3 gusting 4 -3.1
2020-Jan-22 01:55 327 3 gusting 4 -3.3
2020-Jan-22 01:50 325 2 gusting 3 -3.3
2020-Jan-22 01:45 329 2 gusting 3 -3.1
2020-Jan-22 01:40 330 2 gusting 3 -3.3
2020-Jan-22 01:35 331 1 gusting 2 -3.4
2020-Jan-22 01:30 325 1 gusting 2 -3.4
2020-Jan-22 01:25 320 2 gusting 2 -3.3
2020-Jan-22 01:20 318 1 gusting 2 -3.6
2020-Jan-22 01:15 315 1 gusting 2 -3.9
2020-Jan-22 01:10 311 1 gusting 2 -3.9
2020-Jan-22 01:05 326 1 gusting 2 -3.8
2020-Jan-22 01:00 333 1 gusting 2 -3.5
2020-Jan-22 00:55 322 1 gusting 2 -3.2
2020-Jan-22 00:50 313 1 gusting 1 -3.3
2020-Jan-22 00:45 318 1 gusting 2 -3.4
2020-Jan-22 00:40 316 1 gusting 2 -3.7
2020-Jan-22 00:35 309 1 gusting 2 -3.4
2020-Jan-22 00:30 311 1 gusting 2 -3.5
2020-Jan-22 00:25 297 1 gusting 2 -3.4
2020-Jan-22 00:20 294 0 gusting 1 -3.5
2020-Jan-22 00:15 298 0 gusting 1 -3.7
2020-Jan-22 00:10 307 0 gusting 1 -3.5
2020-Jan-22 00:05 314 1 gusting 1 -3.3
2020-Jan-22 00:00 317 1 gusting 1 -2.8
2020-Jan-21 23:55 326 1 gusting 2 -2.3
2020-Jan-21 23:50 319 1 gusting 2 -2.2
2020-Jan-21 23:45 315 2 gusting 2 -2.0
2020-Jan-21 23:40 321 1 gusting 2 -1.9
2020-Jan-21 23:35 324 2 gusting 3 -1.8
2020-Jan-21 23:30 322 2 gusting 3 -1.7
2020-Jan-21 23:25 319 1 gusting 2 -1.7
2020-Jan-21 23:20 319 2 gusting 3 -1.6
2020-Jan-21 23:15 327 2 gusting 4 -1.4
2020-Jan-21 23:10 329 2 gusting 3 -1.3
2020-Jan-21 23:05 332 2 gusting 4 -1.3
2020-Jan-21 23:00 329 2 gusting 4 -1.3
2020-Jan-21 22:55 326 2 gusting 4 -1.2
2020-Jan-21 22:50 331 3 gusting 4 -1.2
2020-Jan-21 22:45 327 2 gusting 4 -1.2
2020-Jan-21 22:40 324 2 gusting 4 -1.0
2020-Jan-21 22:35 329 3 gusting 4 -1.0
2020-Jan-21 22:30 326 2 gusting 4 -0.9
2020-Jan-21 22:25 334 3 gusting 5 -0.6
2020-Jan-21 22:20 327 4 gusting 5 -0.4
2020-Jan-21 22:15 330 3 gusting 6 -0.3
2020-Jan-21 22:10 323 2 gusting 5 -0.4
2020-Jan-21 22:05 329 2 gusting 3 -0.3
2020-Jan-21 22:00 331 2 gusting 3 -0.0
2020-Jan-21 21:55 328 4 gusting 6 0.1
2020-Jan-21 21:50 329 4 gusting 6 0.3
2020-Jan-21 21:45 329 4 gusting 7 0.4
2020-Jan-21 21:40 327 3 gusting 5 0.5
2020-Jan-21 21:35 331 3 gusting 5 0.6
2020-Jan-21 21:30 325 4 gusting 7 0.6
2020-Jan-21 21:25 323 6 gusting 9 0.6
2020-Jan-21 21:20 325 5 gusting 8 0.7
2020-Jan-21 21:15 319 5 gusting 9 0.7
2020-Jan-21 21:10 335 5 gusting 8 0.8
2020-Jan-21 21:05 337 5 gusting 9 0.8
2020-Jan-21 21:00 337 5 gusting 9 0.8
2020-Jan-21 20:55 332 6 gusting 8 0.7
2020-Jan-21 20:50 329 7 gusting 12 0.8
2020-Jan-21 20:45 356 6 gusting 9 1.0
2020-Jan-21 20:40 006 5 gusting 9 1.0
2020-Jan-21 20:35 356 4 gusting 7 1.1
2020-Jan-21 20:30 351 6 gusting 11 1.0
2020-Jan-21 20:25 002 4 gusting 7 1.0
2020-Jan-21 20:20 336 6 gusting 10 0.9
2020-Jan-21 20:15 331 5 gusting 9 1.1
2020-Jan-21 20:10 326 7 gusting 10 0.8
2020-Jan-21 20:05 330 6 gusting 11 0.9
2020-Jan-21 20:00 326 7 gusting 10 0.9
2020-Jan-21 19:55 005 6 gusting 10 0.9
2020-Jan-21 19:50 349 7 gusting 11 0.7
2020-Jan-21 19:45 328 9 gusting 13 0.7
2020-Jan-21 19:40 326 7 gusting 12 0.8
2020-Jan-21 19:35 340 7 gusting 13 1.2
2020-Jan-21 19:30 339 5 gusting 11 1.2
2020-Jan-21 19:25 338 4 gusting 7 1.1
2020-Jan-21 19:20 339 6 gusting 11 0.7
2020-Jan-21 19:15 344 6 gusting 9 0.7
2020-Jan-21 19:10 003 6 gusting 9 0.6
2020-Jan-21 19:05 329 6 gusting 12 0.8
2020-Jan-21 19:00 332 6 gusting 9 0.7
2020-Jan-21 18:55 334 7 gusting 11 0.4
2020-Jan-21 18:50 328 9 gusting 13 0.4
2020-Jan-21 18:45 005 7 gusting 11 0.3
2020-Jan-21 18:40 326 7 gusting 11 0.3
2020-Jan-21 18:35 351 6 gusting 10 0.4
2020-Jan-21 18:30 347 7 gusting 11 0.5
2020-Jan-21 18:25 348 7 gusting 12 0.4
2020-Jan-21 18:20 335 6 gusting 10 0.1
2020-Jan-21 18:15 324 7 gusting 11 -0.1
2020-Jan-21 18:10 330 8 gusting 11 -0.1
2020-Jan-21 18:05 352 6 gusting 11 -0.2
2020-Jan-21 18:00 331 7 gusting 10 -0.2
2020-Jan-21 17:55 359 5 gusting 10 -0.3
2020-Jan-21 17:50 341 6 gusting 9 -0.1
2020-Jan-21 17:45 327 6 gusting 12 -0.2
2020-Jan-21 17:40 314 6 gusting 9 -0.2
2020-Jan-21 17:35 332 5 gusting 10 -0.5
2020-Jan-21 17:30 342 6 gusting 9 -0.6
2020-Jan-21 17:25 335 6 gusting 10 -0.7
2020-Jan-21 17:20 352 8 gusting 11 -0.7
2020-Jan-21 17:15 347 6 gusting 12 -0.4
2020-Jan-21 17:10 024 6 gusting 10 -0.6
2020-Jan-21 17:05 020 8 gusting 12 -0.7
2020-Jan-21 17:00 005 7 gusting 11 -1.0
2020-Jan-21 16:55 358 8 gusting 13 -0.9
2020-Jan-21 16:50 005 6 gusting 9 -1.1
2020-Jan-21 16:45 011 8 gusting 13 -1.3
2020-Jan-21 16:40 345 7 gusting 10 -1.0
2020-Jan-21 16:35 357 6 gusting 11 -1.2
2020-Jan-21 16:30 012 8 gusting 13 -1.4
2020-Jan-21 16:25 358 8 gusting 15 -1.3
2020-Jan-21 16:20 005 7 gusting 12 -1.3
2020-Jan-21 16:15 350 8 gusting 12 -1.6
2020-Jan-21 16:10 345 9 gusting 13 -1.7
2020-Jan-21 16:05 003 7 gusting 12 -1.7
2020-Jan-21 16:00 017 7 gusting 13 -1.8
2020-Jan-21 15:55 339 8 gusting 13 -2.1
2020-Jan-21 15:50 360 8 gusting 13 -1.9
2020-Jan-21 15:45 020 8 gusting 13 -2.3
2020-Jan-21 15:40 357 9 gusting 16 -2.2
2020-Jan-21 15:35 003 8 gusting 12 -2.2
2020-Jan-21 15:30 002 8 gusting 12 -2.4
2020-Jan-21 15:25 356 8 gusting 13 -2.5
2020-Jan-21 15:20 012 7 gusting 13 -2.5
2020-Jan-21 15:15 002 7 gusting 15 -2.7
2020-Jan-21 15:10 350 8 gusting 14 -2.7
2020-Jan-21 15:05 001 9 gusting 17 -3.1
2020-Jan-21 15:00 357 6 gusting 11 -2.8
2020-Jan-21 14:55 003 7 gusting 14 -3.2
2020-Jan-21 14:50 357 9 gusting 15 -3.4
2020-Jan-21 14:45 348 8 gusting 12 -3.5
2020-Jan-21 14:40 358 8 gusting 12 -3.6
2020-Jan-21 14:35 346 7 gusting 11 -3.6
2020-Jan-21 14:30 338 6 gusting 9 -3.8
2020-Jan-21 14:25 344 7 gusting 10 -4.0
2020-Jan-21 14:20 344 6 gusting 11 -4.2
2020-Jan-21 14:15 342 7 gusting 10 -4.4
2020-Jan-21 14:10 343 7 gusting 10 -4.6
2020-Jan-21 14:05 339 6 gusting 11 -4.6
2020-Jan-21 14:00 331 6 gusting 9 -4.9
2020-Jan-21 13:55 334 6 gusting 9 -5.1
2020-Jan-21 13:50 329 7 gusting 10 -5.2
2020-Jan-21 13:45 336 6 gusting 9 -5.4
2020-Jan-21 13:40 334 6 gusting 10 -5.5
2020-Jan-21 13:35 338 5 gusting 9 -5.6
2020-Jan-21 13:30 336 6 gusting 9 -5.8
2020-Jan-21 13:25 332 5 gusting 9 -5.9
2020-Jan-21 13:20 333 4 gusting 7 -6.0
2020-Jan-21 13:15 332 4 gusting 8 -6.2
2020-Jan-21 13:10 328 4 gusting 6 -6.3
2020-Jan-21 13:05 327 4 gusting 7 -6.4
2020-Jan-21 13:00 333 3 gusting 5 -6.6
2020-Jan-21 12:55 329 3 gusting 5 -6.8
2020-Jan-21 12:50 321 3 gusting 5 -6.9
2020-Jan-21 12:45 318 3 gusting 5 -6.9
2020-Jan-21 12:40 313 3 gusting 4 -7.0
2020-Jan-21 12:35 310 2 gusting 4 -7.1
2020-Jan-21 12:30 316 2 gusting 4 -7.2
2020-Jan-21 12:25 312 2 gusting 3 -7.1
2020-Jan-21 12:20 309 1 gusting 3 -7.0
2020-Jan-21 12:15 319 2 gusting 4 -6.9
2020-Jan-21 12:10 322 2 gusting 4 -6.8
2020-Jan-21 12:05 329 3 gusting 5 -6.7
2020-Jan-21 12:00 330 3 gusting 5 -6.8
2020-Jan-21 11:55 325 3 gusting 5 -6.7
2020-Jan-21 11:50 329 3 gusting 6 -6.7
2020-Jan-21 11:45 331 3 gusting 6 -6.7
2020-Jan-21 11:40 332 3 gusting 5 -6.8
2020-Jan-21 11:35 326 3 gusting 5 -6.7
2020-Jan-21 11:30 327 3 gusting 5 -6.8
2020-Jan-21 11:25 323 3 gusting 5 -6.7
2020-Jan-21 11:20 329 3 gusting 5 -6.7
2020-Jan-21 11:15 326 3 gusting 5 -6.8
2020-Jan-21 11:10 327 3 gusting 5 -6.7
2020-Jan-21 11:05 325 3 gusting 5 -6.8
2020-Jan-21 11:00 323 3 gusting 4 -6.8
2020-Jan-21 10:55 320 2 gusting 4 -6.8
2020-Jan-21 10:50 320 3 gusting 5 -6.8
2020-Jan-21 10:45 324 2 gusting 4 -6.8
2020-Jan-21 10:40 325 3 gusting 4 -6.7
2020-Jan-21 10:35 323 3 gusting 4 -6.7
2020-Jan-21 10:30 319 3 gusting 4 -6.8
2020-Jan-21 10:25 317 2 gusting 4 -6.8
2020-Jan-21 10:20 323 2 gusting 4 -6.8
2020-Jan-21 10:15 317 2 gusting 2 -6.7
2020-Jan-21 10:10 320 2 gusting 3 -6.5
2020-Jan-21 10:05 322 2 gusting 4 -6.5
2020-Jan-21 10:00 326 2 gusting 4 -6.4
2020-Jan-21 09:55 320 2 gusting 2 -6.4
2020-Jan-21 09:50 321 2 gusting 3 -6.4
2020-Jan-21 09:45 310 2 gusting 3 -6.4
2020-Jan-21 09:40 320 2 gusting 3 -6.2
2020-Jan-21 09:35 331 3 gusting 4 -5.8
2020-Jan-21 09:30 328 3 gusting 5 -5.9
2020-Jan-21 09:25 329 3 gusting 5 -5.9
2020-Jan-21 09:20 333 3 gusting 4 -5.8
2020-Jan-21 09:15 332 3 gusting 4 -5.8
2020-Jan-21 09:10 333 3 gusting 5 -5.7
2020-Jan-21 09:05 330 2 gusting 4 -5.8
2020-Jan-21 09:00 331 2 gusting 4 -5.8
2020-Jan-21 08:55 339 2 gusting 4 -5.7
2020-Jan-21 08:50 348 2 gusting 4 -5.7
2020-Jan-21 08:45 343 2 gusting 4 -5.8
2020-Jan-21 08:40 337 2 gusting 4 -5.8
2020-Jan-21 08:35 333 2 gusting 3 -5.7
2020-Jan-21 08:30 337 2 gusting 5 -5.7
2020-Jan-21 08:25 329 2 gusting 3 -5.8
2020-Jan-21 08:20 331 2 gusting 3 -5.9
2020-Jan-21 08:15 329 2 gusting 3 -5.8
2020-Jan-21 08:10 323 2 gusting 4 -5.9
2020-Jan-21 08:05 319 2 gusting 3 -5.9
2020-Jan-21 08:00 324 2 gusting 3 -5.7
2020-Jan-21 07:55 332 2 gusting 3 -5.7
2020-Jan-21 07:50 337 2 gusting 2 -5.6
2020-Jan-21 07:45 329 2 gusting 2 -5.6
2020-Jan-21 07:40 330 1 gusting 3 -5.6
2020-Jan-21 07:35 337 2 gusting 3 -5.4
2020-Jan-21 07:30 349 2 gusting 4 -5.4
2020-Jan-21 07:25 345 2 gusting 5 -5.3
2020-Jan-21 07:20 342 3 gusting 4 -5.4
2020-Jan-21 07:15 344 2 gusting 4 -5.4
2020-Jan-21 07:10 342 2 gusting 3 -5.3
2020-Jan-21 07:05 340 2 gusting 4 -5.1
2020-Jan-21 07:00 344 2 gusting 4 -5.1
2020-Jan-21 06:55 346 2 gusting 5 -5.2
2020-Jan-21 06:50 350 3 gusting 7 -5.0
2020-Jan-21 06:45 334 2 gusting 4 -5.0
2020-Jan-21 06:40 328 2 gusting 4 -4.9
2020-Jan-21 06:35 335 3 gusting 4 -4.8
2020-Jan-21 06:30 334 4 gusting 6 -4.8
2020-Jan-21 06:25 334 3 gusting 5 -4.9
2020-Jan-21 06:20 344 4 gusting 6 -4.8
2020-Jan-21 06:15 336 4 gusting 6 -4.7
2020-Jan-21 06:10 339 4 gusting 6 -4.7
2020-Jan-21 06:05 343 4 gusting 6 -4.7
2020-Jan-21 06:00 344 4 gusting 7 -4.7
2020-Jan-21 05:55 342 4 gusting 8 -4.6
2020-Jan-21 05:50 331 5 gusting 8 -4.5
2020-Jan-21 05:45 331 5 gusting 7 -4.5
2020-Jan-21 05:40 340 5 gusting 8 -4.6
2020-Jan-21 05:35 345 4 gusting 6 -4.7
2020-Jan-21 05:30 342 4 gusting 7 -4.8
2020-Jan-21 05:25 336 4 gusting 6 -4.7
2020-Jan-21 05:20 335 4 gusting 6 -4.7
2020-Jan-21 05:15 335 4 gusting 8 -4.7
2020-Jan-21 05:10 337 4 gusting 8 -4.8
2020-Jan-21 05:05 332 4 gusting 7 -4.9
2020-Jan-21 05:00 334 3 gusting 5 -4.9
2020-Jan-21 04:55 343 3 gusting 5 -4.9
2020-Jan-21 04:50 342 3 gusting 5 -5.0
2020-Jan-21 04:45 336 4 gusting 5 -4.9
2020-Jan-21 04:40 349 4 gusting 5 -5.0
2020-Jan-21 04:35 344 3 gusting 4 -5.0
2020-Jan-21 04:30 336 3 gusting 4 -5.0
2020-Jan-21 04:25 331 3 gusting 4 -4.9
2020-Jan-21 04:20 331 3 gusting 5 -5.0
2020-Jan-21 04:15 324 2 gusting 4 -5.1
2020-Jan-21 04:10 321 3 gusting 4 -4.9
2020-Jan-21 04:05 329 2 gusting 5 -5.0
2020-Jan-21 04:00 326 2 gusting 5 -5.0